Weather History for San Jose, CA

Change the Weather History Date:

Monday, September 2, 2013

  Actual Average Record
Temperature  
Mean Temperature 73 °F 70 °F  
Max Temperature 79 °F 83 °F 102 °F (1950)
Min Temperature 66 °F 58 °F 42 °F (1895)
Degree Days  
Heating Degree Days 0 0  
Month to date heating degree days 0 0  
Since 1 July heating degree days 1 3  
Cooling Degree Days 8 6  
Month to date cooling degree days 15 12  
Year to date cooling degree days 440 558  
Growing Degree Days 22 (Base 50)    
Moisture  
Dew Point 61 °F    
Average Humidity 68    
Maximum Humidity 81    
Minimum Humidity 54    
Precipitation  
Precipitation T in 0.00 in 0.03 in (2000)
Month to date precipitation T 0.00  
Year to date precipitation 2.24 9.89  
Since 1 July precipitation T T  
Sea Level Pressure  
Sea Level Pressure 29.93 in    
Wind  
Wind Speed 8 mph (NW)    
Max Wind Speed 21 mph    
Max Gust Speed 25 mph    
Visibility 10 miles    
Events Rain    
T = Trace of Precipitation, MM = Missing Value Source: NWS Daily Summary

Daily Weather History Graph

Daily Weather History Graph

Search for Another Location

Airport:

Trip Planner

Search our weather history database for the weather conditions in past years. The results will help you decide how hot, cold, wet, or windy it might be!

Date:

Astronomy

Sep. 02, 2013 Rise Set
Actual Time 6:39 AM PDT 7:34 PM PDT
Civil Twilight 6:12 AM PDT 8:01 PM PDT
Nautical Twilight 5:41 AM PDT 8:32 PM PDT
Astronomical Twilight 5:08 AM PDT 9:05 PM PDT
Moon 4:03 AM PDT (9/2) 5:49 PM PDT (9/2)
Length of Visible Light 13h 48m
Length of Day
12h 55m
Waning Crescent, 7% of the Moon is Illuminated
Sep 2
Waning Crescent
Sep 5
New
Sep 12
First Quarter
Sep 19
Full
Sep 26
Last Quarter

Hourly Weather History & Observations

Time (PDT) Temp. Dew Point Humidity Pressure Visibility Wind Dir Wind Speed Gust Speed Precip Events Conditions
12:53 AM 66.9 °F 60.1 °F 79% 29.93 in 10.0 mi NW 4.6 mph - N/A   Clear
1:53 AM 66.9 °F 60.1 °F 79% 29.93 in 10.0 mi NNW 3.5 mph - N/A   Clear
2:53 AM 66.9 °F 60.1 °F 79% 29.92 in 10.0 mi NNW 3.5 mph - N/A   Mostly Cloudy
3:53 AM 66.9 °F 61.0 °F 81% 29.92 in 10.0 mi NW 6.9 mph - N/A   Scattered Clouds
4:53 AM 66.0 °F 61.0 °F 84% 29.92 in 10.0 mi NW 9.2 mph - N/A   Overcast
5:08 AM 66.2 °F 60.8 °F 83% 29.93 in 10.0 mi NW 10.4 mph - N/A   Overcast
5:50 AM 66.2 °F 60.8 °F 83% 29.93 in 10.0 mi WNW 12.7 mph - N/A   Mostly Cloudy
5:53 AM 66.0 °F 61.0 °F 84% 29.93 in 10.0 mi NW 8.1 mph - N/A   Mostly Cloudy
6:53 AM 66.0 °F 61.0 °F 84% 29.95 in 10.0 mi NW 8.1 mph - N/A   Mostly Cloudy
7:53 AM 66.0 °F 61.0 °F 84% 29.96 in 10.0 mi West 4.6 mph - N/A   Mostly Cloudy
8:53 AM 66.9 °F 61.0 °F 81% 29.96 in 10.0 mi NW 5.8 mph - N/A   Mostly Cloudy
9:48 AM 68.0 °F 60.8 °F 78% 29.97 in 10.0 mi NNW 5.8 mph - N/A   Mostly Cloudy
9:53 AM 68.0 °F 61.0 °F 78% 29.97 in 10.0 mi North 5.8 mph - N/A   Mostly Cloudy
10:16 AM 69.8 °F 60.8 °F 73% 29.97 in 10.0 mi Calm Calm - N/A   Mostly Cloudy
10:53 AM 69.1 °F 61.0 °F 75% 29.97 in 10.0 mi Calm Calm - N/A   Mostly Cloudy
11:53 AM 75.0 °F 61.0 °F 62% 29.96 in 10.0 mi Variable 3.5 mph - N/A   Mostly Cloudy
12:53 PM 77.0 °F 60.1 °F 56% 29.94 in 10.0 mi WNW 9.2 mph - N/A   Mostly Cloudy
1:53 PM 78.1 °F 61.0 °F 56% 29.93 in 10.0 mi WNW 10.4 mph - N/A   Mostly Cloudy
2:53 PM 75.9 °F 61.0 °F 60% 29.91 in 10.0 mi WNW 13.8 mph - N/A   Mostly Cloudy
3:53 PM 77.0 °F 59.0 °F 54% 29.90 in 10.0 mi WNW 16.1 mph - N/A   Mostly Cloudy
4:53 PM 75.9 °F 59.0 °F 56% 29.90 in 10.0 mi WNW 16.1 mph 23.0 mph N/A   Mostly Cloudy
5:53 PM 73.0 °F 60.1 °F 64% 29.90 in 10.0 mi NNW 12.7 mph - N/A   Mostly Cloudy
6:53 PM 72.0 °F 60.1 °F 66% 29.89 in 10.0 mi NW 10.4 mph - N/A   Mostly Cloudy
7:53 PM 70.0 °F 61.0 °F 73% 29.91 in 10.0 mi NW 9.2 mph - N/A   Mostly Cloudy
8:53 PM 69.1 °F 62.1 °F 78% 29.93 in 10.0 mi NW 15.0 mph - 0.00 in Rain Light Rain
9:53 PM 66.0 °F 62.1 °F 87% 29.94 in 10.0 mi NW 12.7 mph - 0.00 in   Scattered Clouds
10:53 PM 66.0 °F 61.0 °F 84% 29.95 in 10.0 mi NNW 6.9 mph - N/A   Scattered Clouds
11:53 PM 66.0 °F 61.0 °F 84% 29.95 in 10.0 mi NNW 4.6 mph - N/A   Scattered Clouds